Stolt Ami — 3EAZ5 — position and weather

sailwx.info

Track history (hours):
 
Tides and Currents Weather Stations Pressure Air Temp Water Temp Dewpoint Dewpoint Depression Visibility Wind Speed Wind Dir Waves Ship Positions

Stolt Ami

Last reported at 2014-Aug-31 09:17 UTC. Time now 2014-Sep-03 05:06 UTC.
Position S 29°28' E 031°38'.

Length 143 m; draft 8.9 m.

Type: Tanker. MMSI: 371433000.

Date/timePositionNaut miles runAvg speedWind from/ knotsBaromVisibWave heightAir tempDewpointWater temp
2014-Aug-31 09:17S 29°28' E 031°38'1013.8
2014-Aug-31 08:31S 29°35' E 031°29'1414.0
2014-Aug-31 07:33S 29°43' E 031°16'1312.5
2014-Aug-31 06:33S 29°50' E 031°05'3 3.2
2014-Aug-31 05:27S 29°53' E 031°02'0 0.0
2014-Aug-31 04:28S 29°53' E 031°02'0 0.0
2014-Aug-31 03:34S 29°53' E 031°02'0 0.0
2014-Aug-31 02:32S 29°53' E 031°02'0 0.0
2014-Aug-31 01:33S 29°53' E 031°02'0 0.0
2014-Aug-31 00:33S 29°53' E 031°02'0 0.0
2014-Aug-30 23:33S 29°53' E 031°02'0 0.0
2014-Aug-30 22:33S 29°53' E 031°02'0 0.0
2014-Aug-30 21:33S 29°53' E 031°02'0 0.0
2014-Aug-30 20:33S 29°53' E 031°02'0 0.0
2014-Aug-30 19:33S 29°53' E 031°02'0 0.0
2014-Aug-30 18:32S 29°53' E 031°02'0 0.0
2014-Aug-30 17:33S 29°53' E 031°02'0 0.0
2014-Aug-30 16:33S 29°53' E 031°02'0 0.0
2014-Aug-30 15:33S 29°53' E 031°02'0 0.0
2014-Aug-30 14:33S 29°53' E 031°02'0 0.0
2014-Aug-30 13:33S 29°53' E 031°02'0 0.0
2014-Aug-30 12:33S 29°53' E 031°02'0 0.0
2014-Aug-30 11:33S 29°53' E 031°02'0 0.0
2014-Aug-30 10:33S 29°53' E 031°02'0 0.0
2014-Aug-30 09:33S 29°53' E 031°02'0 0.0
2014-Aug-30 08:33S 29°53' E 031°02'0 0.0
2014-Aug-30 07:33S 29°53' E 031°02'0 0.0
2014-Aug-30 06:33S 29°53' E 031°02'0 0.0
2014-Aug-30 05:33S 29°53' E 031°02'0 0.0
2014-Aug-30 04:33S 29°53' E 031°02'0 0.0
2014-Aug-30 03:33S 29°53' E 031°02'0 0.0
2014-Aug-30 02:33S 29°53' E 031°02'0 0.0
2014-Aug-30 01:33S 29°53' E 031°02'0 0.0
2014-Aug-30 00:33S 29°53' E 031°02'0 0.0
2014-Aug-29 23:33S 29°53' E 031°02'0 0.0
2014-Aug-29 22:33S 29°53' E 031°02'0 0.0
2014-Aug-29 21:33S 29°53' E 031°02'0 0.0
2014-Aug-29 20:33S 29°53' E 031°02'0 0.0
2014-Aug-29 19:33S 29°53' E 031°02'0 0.0
2014-Aug-29 18:33S 29°53' E 031°02'0 0.0
2014-Aug-29 17:33S 29°53' E 031°02'0 0.0
2014-Aug-29 16:33S 29°53' E 031°02'0 0.0
2014-Aug-29 15:33S 29°53' E 031°02'0 0.0
2014-Aug-29 14:33S 29°53' E 031°02'0 0.0
2014-Aug-29 13:33S 29°53' E 031°02'0 0.0
2014-Aug-29 12:33S 29°53' E 031°02'0 0.0
2014-Aug-29 11:33S 29°53' E 031°02'5 4.6
2014-Aug-29 10:33S 29°50' E 031°06'2 1.8
2014-Aug-29 09:33S 29°48' E 031°06'1 1.3
2014-Aug-29 08:33S 29°47' E 031°07'3 3.0
2014-Aug-29 07:33S 29°45' E 031°10'0 0.1
2014-Aug-29 06:29S 29°44' E 031°10'0 0.0
2014-Aug-29 04:29S 29°44' E 031°10'0 0.0
2014-Aug-29 03:29S 29°44' E 031°10'0 0.1
2014-Aug-29 02:29S 29°45' E 031°10'0 0.0
2014-Aug-29 01:23S 29°45' E 031°10'0 0.1
2014-Aug-29 00:17S 29°45' E 031°10'0 0.1
2014-Aug-28 23:17S 29°45' E 031°10'0 0.0
2014-Aug-28 22:29S 29°45' E 031°10'0 0.2
2014-Aug-28 21:23S 29°45' E 031°10'0 0.0
2014-Aug-28 20:17S 29°45' E 031°10'0 0.0
2014-Aug-28 19:29S 29°45' E 031°10'0 0.0
2014-Aug-28 18:23S 29°45' E 031°10'0 0.0
2014-Aug-28 17:29S 29°45' E 031°10'0 0.0
2014-Aug-28 16:23S 29°45' E 031°10'0 0.0
2014-Aug-28 15:23S 29°45' E 031°10'0 0.0
2014-Aug-28 14:23S 29°45' E 031°10'0 0.0
2014-Aug-28 13:29S 29°45' E 031°09'0 0.0
2014-Aug-28 12:17S 29°45' E 031°09'0 0.0
2014-Aug-28 11:29S 29°45' E 031°09'0 0.0
2014-Aug-28 10:23S 29°45' E 031°09'0 0.0
2014-Aug-28 09:17S 29°45' E 031°09'0 0.0
2014-Aug-28 08:29S 29°45' E 031°09'0 0.0
2014-Aug-28 07:29S 29°45' E 031°09'0 0.0
2014-Aug-28 06:29S 29°45' E 031°09'0 0.1
2014-Aug-28 05:23S 29°45' E 031°09'0 0.1
2014-Aug-28 04:23S 29°45' E 031°10'0 0.0
2014-Aug-28 03:29S 29°45' E 031°10'0 0.0
2014-Aug-28 02:29S 29°45' E 031°10'0 0.0
2014-Aug-28 01:29S 29°45' E 031°10'0 0.0
2014-Aug-28 00:29S 29°45' E 031°10'0 0.0
2014-Aug-27 23:23S 29°45' E 031°10'0 0.0
2014-Aug-27 22:29S 29°45' E 031°10'0 0.0
2014-Aug-27 21:29S 29°45' E 031°10'0 0.3
2014-Aug-27 20:29S 29°45' E 031°09'0 0.1
2014-Aug-27 19:29S 29°45' E 031°09'0 0.0
2014-Aug-27 18:29S 29°45' E 031°09'0 0.0
2014-Aug-27 17:11S 29°45' E 031°09'0 0.0
2014-Aug-27 15:29S 29°45' E 031°09'0 0.0
2014-Aug-27 14:29S 29°45' E 031°09'0 0.0
2014-Aug-27 13:23S 29°45' E 031°09'0 0.0
2014-Aug-27 12:29S 29°45' E 031°09'0 0.0
2014-Aug-27 11:29S 29°45' E 031°09'0 0.0
2014-Aug-27 10:29S 29°45' E 031°09'0 0.0
2014-Aug-27 09:29S 29°45' E 031°09'0 0.0
2014-Aug-27 08:29S 29°45' E 031°09'0 0.0
2014-Aug-27 07:29S 29°45' E 031°09'0 0.0
2014-Aug-27 06:29S 29°45' E 031°09'0 0.0
2014-Aug-27 05:29S 29°45' E 031°09'0 0.0
2014-Aug-27 04:29S 29°45' E 031°09'0 0.0
2014-Aug-27 03:23S 29°45' E 031°09'0 0.0
2014-Aug-27 02:29S 29°45' E 031°09'0 0.0
2014-Aug-27 01:29S 29°45' E 031°09'0 0.0
2014-Aug-27 00:29S 29°45' E 031°09'0 0.0
2014-Aug-26 23:23S 29°45' E 031°09'0 0.0
2014-Aug-26 22:33S 29°45' E 031°09'0 0.0
2014-Aug-26 21:29S 29°45' E 031°09'0 0.0
2014-Aug-26 20:17S 29°45' E 031°09'0 0.0
2014-Aug-26 19:29S 29°45' E 031°09'0 0.0
2014-Aug-26 18:29S 29°45' E 031°09'0 0.0
2014-Aug-26 17:29S 29°45' E 031°09'0 0.0
2014-Aug-26 16:29S 29°45' E 031°09'0 0.0
2014-Aug-26 15:29S 29°45' E 031°09'0 0.0
2014-Aug-26 14:29S 29°45' E 031°09'0 0.0
2014-Aug-26 13:29S 29°45' E 031°09'0 0.0
2014-Aug-26 12:29S 29°45' E 031°09'0 0.0
2014-Aug-26 11:29S 29°45' E 031°09'0 0.0
2014-Aug-26 10:29S 29°45' E 031°09'0 0.0
2014-Aug-26 09:29S 29°45' E 031°09'0 0.0
2014-Aug-26 08:29S 29°45' E 031°09'0 0.0
2014-Aug-26 07:29S 29°45' E 031°09'0 0.0
2014-Aug-26 06:29S 29°45' E 031°09'0 0.0
2014-Aug-26 05:29S 29°45' E 031°09'0 0.0
2014-Aug-26 04:29S 29°45' E 031°09'0 0.0
2014-Aug-26 03:29S 29°45' E 031°09'0 0.0
2014-Aug-26 02:29S 29°45' E 031°09'0 0.0
2014-Aug-26 01:29S 29°45' E 031°09'0 0.0
2014-Aug-26 00:29S 29°45' E 031°09'0 0.0
2014-Aug-25 23:23S 29°45' E 031°09'0 0.1
2014-Aug-25 22:29S 29°45' E 031°09'0 0.0
2014-Aug-25 21:29S 29°45' E 031°09'0 0.0
2014-Aug-25 20:17S 29°45' E 031°09'0 0.0
2014-Aug-25 19:11S 29°45' E 031°09'0 0.0
2014-Aug-25 18:29S 29°45' E 031°09'0 0.0
2014-Aug-25 17:29S 29°45' E 031°09'0 0.0
2014-Aug-25 16:29S 29°45' E 031°09'0 0.0
2014-Aug-25 15:29S 29°45' E 031°09'0 0.0
2014-Aug-25 14:17S 29°45' E 031°09'0 0.0
2014-Aug-25 13:11S 29°45' E 031°09'0 0.0
2014-Aug-25 12:23S 29°45' E 031°09'0 0.0
2014-Aug-25 11:23S 29°45' E 031°09'0 0.0
2014-Aug-25 10:23S 29°45' E 031°09'0 0.0
2014-Aug-25 09:29S 29°45' E 031°09'0 0.0
2014-Aug-25 08:29S 29°45' E 031°10'0 0.0
2014-Aug-25 07:29S 29°45' E 031°10'0 0.0
2014-Aug-25 05:29S 29°45' E 031°10'0 0.0
2014-Aug-25 04:29S 29°45' E 031°10'0 0.0
2014-Aug-25 03:23S 29°45' E 031°10'0 0.0
2014-Aug-25 02:23S 29°45' E 031°10'0 0.0
2014-Aug-25 01:29S 29°45' E 031°10'0 0.0
2014-Aug-25 00:23S 29°45' E 031°10'0 0.0
2014-Aug-24 23:29S 29°45' E 031°10'0 0.0
2014-Aug-24 22:11S 29°45' E 031°10'0 0.0
2014-Aug-24 21:29S 29°45' E 031°10'0 0.0
2014-Aug-24 20:29S 29°45' E 031°10'0 0.0
2014-Aug-24 19:11S 29°45' E 031°10'0 0.0
2014-Aug-24 18:17S 29°45' E 031°10'0 0.0
2014-Aug-24 17:23S 29°45' E 031°10'0 0.0
2014-Aug-24 16:29S 29°45' E 031°10'0 0.0
2014-Aug-24 15:29S 29°45' E 031°10'0 0.0
2014-Aug-24 14:23S 29°45' E 031°10'0 0.0
2014-Aug-24 13:29S 29°45' E 031°10'0 0.0
2014-Aug-24 12:29S 29°45' E 031°10'0 0.0
2014-Aug-24 11:29S 29°45' E 031°10'0 0.0
2014-Aug-24 10:29S 29°45' E 031°10'0 0.0
2014-Aug-24 09:29S 29°45' E 031°10'0 0.0
2014-Aug-24 08:23S 29°45' E 031°10'0 0.0
2014-Aug-24 07:29S 29°45' E 031°10'0 0.0
2014-Aug-24 06:29S 29°45' E 031°10'1 1.0
2014-Aug-24 05:34S 29°46' E 031°10'1 0.9
2014-Aug-24 04:30S 29°45' E 031°10'0 0.0
2014-Aug-24 03:30S 29°45' E 031°10'0 0.0
2014-Aug-24 02:30S 29°45' E 031°10'0 0.0
2014-Aug-24 01:18S 29°45' E 031°10'0 0.0
2014-Aug-24 00:30S 29°45' E 031°10'0 0.0
2014-Aug-23 23:30S 29°45' E 031°10'0 0.0
2014-Aug-23 22:30S 29°45' E 031°10'0 0.0
2014-Aug-23 21:30S 29°45' E 031°10'0 0.0
2014-Aug-23 20:30S 29°45' E 031°10'0 0.0
2014-Aug-23 19:24S 29°45' E 031°10'  
Track history (hours):
 
Tides and Currents Weather Stations Pressure Air Temp Water Temp Dewpoint Dewpoint Depression Visibility Wind Speed Wind Dir Waves Ship Positions

Stolt Ami

Last reported at 2014-Aug-31 09:17 UTC. Time now 2014-Sep-03 05:06 UTC.
Position S 29°28' E 031°38'.

Length 143 m; draft 8.9 m.

Type: Tanker. MMSI: 371433000.

Date/timePositionNaut miles runAvg speedWind from/ knotsBaromVisibWave heightAir tempDewpointWater temp
2014-Aug-31 09:17S 29°28' E 031°38'1013.8
2014-Aug-31 08:31S 29°35' E 031°29'1414.0
2014-Aug-31 07:33S 29°43' E 031°16'1312.5
2014-Aug-31 06:33S 29°50' E 031°05'3 3.2
2014-Aug-31 05:27S 29°53' E 031°02'0 0.0
2014-Aug-31 04:28S 29°53' E 031°02'0 0.0
2014-Aug-31 03:34S 29°53' E 031°02'0 0.0
2014-Aug-31 02:32S 29°53' E 031°02'0 0.0
2014-Aug-31 01:33S 29°53' E 031°02'0 0.0
2014-Aug-31 00:33S 29°53' E 031°02'0 0.0
2014-Aug-30 23:33S 29°53' E 031°02'0 0.0
2014-Aug-30 22:33S 29°53' E 031°02'0 0.0
2014-Aug-30 21:33S 29°53' E 031°02'0 0.0
2014-Aug-30 20:33S 29°53' E 031°02'0 0.0
2014-Aug-30 19:33S 29°53' E 031°02'0 0.0
2014-Aug-30 18:32S 29°53' E 031°02'0 0.0
2014-Aug-30 17:33S 29°53' E 031°02'0 0.0
2014-Aug-30 16:33S 29°53' E 031°02'0 0.0
2014-Aug-30 15:33S 29°53' E 031°02'0 0.0
2014-Aug-30 14:33S 29°53' E 031°02'0 0.0
2014-Aug-30 13:33S 29°53' E 031°02'0 0.0
2014-Aug-30 12:33S 29°53' E 031°02'0 0.0
2014-Aug-30 11:33S 29°53' E 031°02'0 0.0
2014-Aug-30 10:33S 29°53' E 031°02'0 0.0
2014-Aug-30 09:33S 29°53' E 031°02'0 0.0
2014-Aug-30 08:33S 29°53' E 031°02'0 0.0
2014-Aug-30 07:33S 29°53' E 031°02'0 0.0
2014-Aug-30 06:33S 29°53' E 031°02'0 0.0
2014-Aug-30 05:33S 29°53' E 031°02'0 0.0
2014-Aug-30 04:33S 29°53' E 031°02'0 0.0
2014-Aug-30 03:33S 29°53' E 031°02'0 0.0
2014-Aug-30 02:33S 29°53' E 031°02'0 0.0
2014-Aug-30 01:33S 29°53' E 031°02'0 0.0
2014-Aug-30 00:33S 29°53' E 031°02'0 0.0
2014-Aug-29 23:33S 29°53' E 031°02'0 0.0
2014-Aug-29 22:33S 29°53' E 031°02'0 0.0
2014-Aug-29 21:33S 29°53' E 031°02'0 0.0
2014-Aug-29 20:33S 29°53' E 031°02'0 0.0
2014-Aug-29 19:33S 29°53' E 031°02'0 0.0
2014-Aug-29 18:33S 29°53' E 031°02'0 0.0
2014-Aug-29 17:33S 29°53' E 031°02'0 0.0
2014-Aug-29 16:33S 29°53' E 031°02'0 0.0
2014-Aug-29 15:33S 29°53' E 031°02'0 0.0
2014-Aug-29 14:33S 29°53' E 031°02'0 0.0
2014-Aug-29 13:33S 29°53' E 031°02'0 0.0
2014-Aug-29 12:33S 29°53' E 031°02'0 0.0
2014-Aug-29 11:33S 29°53' E 031°02'5 4.6
2014-Aug-29 10:33S 29°50' E 031°06'2 1.8
2014-Aug-29 09:33S 29°48' E 031°06'1 1.3
2014-Aug-29 08:33S 29°47' E 031°07'3 3.0
2014-Aug-29 07:33S 29°45' E 031°10'0 0.1
2014-Aug-29 06:29S 29°44' E 031°10'0 0.0
2014-Aug-29 04:29S 29°44' E 031°10'0 0.0
2014-Aug-29 03:29S 29°44' E 031°10'0 0.1
2014-Aug-29 02:29S 29°45' E 031°10'0 0.0
2014-Aug-29 01:23S 29°45' E 031°10'0 0.1
2014-Aug-29 00:17S 29°45' E 031°10'0 0.1
2014-Aug-28 23:17S 29°45' E 031°10'0 0.0
2014-Aug-28 22:29S 29°45' E 031°10'0 0.2
2014-Aug-28 21:23S 29°45' E 031°10'0 0.0
2014-Aug-28 20:17S 29°45' E 031°10'0 0.0
2014-Aug-28 19:29S 29°45' E 031°10'0 0.0
2014-Aug-28 18:23S 29°45' E 031°10'0 0.0
2014-Aug-28 17:29S 29°45' E 031°10'0 0.0
2014-Aug-28 16:23S 29°45' E 031°10'0 0.0
2014-Aug-28 15:23S 29°45' E 031°10'0 0.0
2014-Aug-28 14:23S 29°45' E 031°10'0 0.0
2014-Aug-28 13:29S 29°45' E 031°09'0 0.0
2014-Aug-28 12:17S 29°45' E 031°09'0 0.0
2014-Aug-28 11:29S 29°45' E 031°09'0 0.0
2014-Aug-28 10:23S 29°45' E 031°09'0 0.0
2014-Aug-28 09:17S 29°45' E 031°09'0 0.0
2014-Aug-28 08:29S 29°45' E 031°09'0 0.0
2014-Aug-28 07:29S 29°45' E 031°09'0 0.0
2014-Aug-28 06:29S 29°45' E 031°09'0 0.1
2014-Aug-28 05:23S 29°45' E 031°09'0 0.1
2014-Aug-28 04:23S 29°45' E 031°10'0 0.0
2014-Aug-28 03:29S 29°45' E 031°10'0 0.0
2014-Aug-28 02:29S 29°45' E 031°10'0 0.0
2014-Aug-28 01:29S 29°45' E 031°10'0 0.0
2014-Aug-28 00:29S 29°45' E 031°10'0 0.0
2014-Aug-27 23:23S 29°45' E 031°10'0 0.0
2014-Aug-27 22:29S 29°45' E 031°10'0 0.0
2014-Aug-27 21:29S 29°45' E 031°10'0 0.3
2014-Aug-27 20:29S 29°45' E 031°09'0 0.1
2014-Aug-27 19:29S 29°45' E 031°09'0 0.0
2014-Aug-27 18:29S 29°45' E 031°09'0 0.0
2014-Aug-27 17:11S 29°45' E 031°09'0 0.0
2014-Aug-27 15:29S 29°45' E 031°09'0 0.0
2014-Aug-27 14:29S 29°45' E 031°09'0 0.0
2014-Aug-27 13:23S 29°45' E 031°09'0 0.0
2014-Aug-27 12:29S 29°45' E 031°09'0 0.0
2014-Aug-27 11:29S 29°45' E 031°09'0 0.0
2014-Aug-27 10:29S 29°45' E 031°09'0 0.0
2014-Aug-27 09:29S 29°45' E 031°09'0 0.0
2014-Aug-27 08:29S 29°45' E 031°09'0 0.0
2014-Aug-27 07:29S 29°45' E 031°09'0 0.0
2014-Aug-27 06:29S 29°45' E 031°09'0 0.0
2014-Aug-27 05:29S 29°45' E 031°09'0 0.0
2014-Aug-27 04:29S 29°45' E 031°09'0 0.0
2014-Aug-27 03:23S 29°45' E 031°09'0 0.0
2014-Aug-27 02:29S 29°45' E 031°09'0 0.0
2014-Aug-27 01:29S 29°45' E 031°09'0 0.0
2014-Aug-27 00:29S 29°45' E 031°09'0 0.0
2014-Aug-26 23:23S 29°45' E 031°09'0 0.0
2014-Aug-26 22:33S 29°45' E 031°09'0 0.0
2014-Aug-26 21:29S 29°45' E 031°09'0 0.0
2014-Aug-26 20:17S 29°45' E 031°09'0 0.0
2014-Aug-26 19:29S 29°45' E 031°09'0 0.0
2014-Aug-26 18:29S 29°45' E 031°09'0 0.0
2014-Aug-26 17:29S 29°45' E 031°09'0 0.0
2014-Aug-26 16:29S 29°45' E 031°09'0 0.0
2014-Aug-26 15:29S 29°45' E 031°09'0 0.0
2014-Aug-26 14:29S 29°45' E 031°09'0 0.0
2014-Aug-26 13:29S 29°45' E 031°09'0 0.0
2014-Aug-26 12:29S 29°45' E 031°09'0 0.0
2014-Aug-26 11:29S 29°45' E 031°09'0 0.0
2014-Aug-26 10:29S 29°45' E 031°09'0 0.0
2014-Aug-26 09:29S 29°45' E 031°09'0 0.0
2014-Aug-26 08:29S 29°45' E 031°09'0 0.0
2014-Aug-26 07:29S 29°45' E 031°09'0 0.0
2014-Aug-26 06:29S 29°45' E 031°09'0 0.0
2014-Aug-26 05:29S 29°45' E 031°09'0 0.0
2014-Aug-26 04:29S 29°45' E 031°09'0 0.0
2014-Aug-26 03:29S 29°45' E 031°09'0 0.0
2014-Aug-26 02:29S 29°45' E 031°09'0 0.0
2014-Aug-26 01:29S 29°45' E 031°09'0 0.0
2014-Aug-26 00:29S 29°45' E 031°09'0 0.0
2014-Aug-25 23:23S 29°45' E 031°09'0 0.1
2014-Aug-25 22:29S 29°45' E 031°09'0 0.0
2014-Aug-25 21:29S 29°45' E 031°09'0 0.0
2014-Aug-25 20:17S 29°45' E 031°09'0 0.0
2014-Aug-25 19:11S 29°45' E 031°09'0 0.0
2014-Aug-25 18:29S 29°45' E 031°09'0 0.0
2014-Aug-25 17:29S 29°45' E 031°09'0 0.0
2014-Aug-25 16:29S 29°45' E 031°09'0 0.0
2014-Aug-25 15:29S 29°45' E 031°09'0 0.0
2014-Aug-25 14:17S 29°45' E 031°09'0 0.0
2014-Aug-25 13:11S 29°45' E 031°09'0 0.0
2014-Aug-25 12:23S 29°45' E 031°09'0 0.0
2014-Aug-25 11:23S 29°45' E 031°09'0 0.0
2014-Aug-25 10:23S 29°45' E 031°09'0 0.0
2014-Aug-25 09:29S 29°45' E 031°09'0 0.0
2014-Aug-25 08:29S 29°45' E 031°10'0 0.0
2014-Aug-25 07:29S 29°45' E 031°10'0 0.0
2014-Aug-25 05:29S 29°45' E 031°10'0 0.0
2014-Aug-25 04:29S 29°45' E 031°10'0 0.0
2014-Aug-25 03:23S 29°45' E 031°10'0 0.0
2014-Aug-25 02:23S 29°45' E 031°10'0 0.0
2014-Aug-25 01:29S 29°45' E 031°10'0 0.0
2014-Aug-25 00:23S 29°45' E 031°10'0 0.0
2014-Aug-24 23:29S 29°45' E 031°10'0 0.0
2014-Aug-24 22:11S 29°45' E 031°10'0 0.0
2014-Aug-24 21:29S 29°45' E 031°10'0 0.0
2014-Aug-24 20:29S 29°45' E 031°10'0 0.0
2014-Aug-24 19:11S 29°45' E 031°10'0 0.0
2014-Aug-24 18:17S 29°45' E 031°10'0 0.0
2014-Aug-24 17:23S 29°45' E 031°10'0 0.0
2014-Aug-24 16:29S 29°45' E 031°10'0 0.0
2014-Aug-24 15:29S 29°45' E 031°10'0 0.0
2014-Aug-24 14:23S 29°45' E 031°10'0 0.0
2014-Aug-24 13:29S 29°45' E 031°10'0 0.0
2014-Aug-24 12:29S 29°45' E 031°10'0 0.0
2014-Aug-24 11:29S 29°45' E 031°10'0 0.0
2014-Aug-24 10:29S 29°45' E 031°10'0 0.0
2014-Aug-24 09:29S 29°45' E 031°10'0 0.0
2014-Aug-24 08:23S 29°45' E 031°10'0 0.0
2014-Aug-24 07:29S 29°45' E 031°10'0 0.0
2014-Aug-24 06:29S 29°45' E 031°10'1 1.0
2014-Aug-24 05:34S 29°46' E 031°10'1 0.9
2014-Aug-24 04:30S 29°45' E 031°10'0 0.0
2014-Aug-24 03:30S 29°45' E 031°10'0 0.0
2014-Aug-24 02:30S 29°45' E 031°10'0 0.0
2014-Aug-24 01:18S 29°45' E 031°10'0 0.0
2014-Aug-24 00:30S 29°45' E 031°10'0 0.0
2014-Aug-23 23:30S 29°45' E 031°10'0 0.0
2014-Aug-23 22:30S 29°45' E 031°10'0 0.0
2014-Aug-23 21:30S 29°45' E 031°10'0 0.0
2014-Aug-23 20:30S 29°45' E 031°10'0 0.0
2014-Aug-23 19:24S 29°45' E 031°10'  

Dump ship's entire track history